| time (UTC) | temp C | wind direction | speed KPH | gust KPH | rain 1hr cm | rain 24hr cm | rain mn cm | humidity % | barometer mb |
| 20260502163016 | 16 | 70 | 9.7 | 16.1 | 0.00 | 0.00 | 0.00 | 25 | 1015.8 |
| 20260502161511 | 15 | 130 | 9.7 | 14.5 | 0.00 | 0.00 | 0.00 | 26 | 1015.8 |
| 20260502151523 | 12 | 41 | 6.4 | 9.7 | 0.00 | 0.00 | 0.00 | 32 | 1015.7 |
| 20260502123038 | 2 | 34 | 3.2 | 6.4 | 0.00 | 0.00 | 0.00 | 62 | 1015.7 |
| 20260502121545 | 2 | 33 | 1.6 | 6.4 | 0.00 | 0.00 | 0.00 | 60 | 1015.7 |
| 20260502114531 | 3 | 33 | 0.0 | 4.8 | 0.00 | 0.00 | 0.00 | 57 | 1015.6 |
| 20260502113029 | 3 | 33 | 3.2 | 6.4 | 0.00 | 0.00 | 0.00 | 55 | 1015.7 |
| 20260502111530 | 3 | 33 | 4.8 | 6.4 | 0.00 | 0.00 | 0.00 | 55 | 1015.8 |
| 20260502110013 | 3 | 33 | 0.0 | 4.8 | 0.00 | 0.00 | 0.00 | 56 | 1015.7 |
| 20260502104509 | 3 | 33 | 1.6 | 6.4 | 0.00 | 0.00 | 0.00 | 57 | 1015.8 |
| 20260502103051 | 3 | 11 | 3.2 | 6.4 | 0.00 | 0.00 | 0.00 | 58 | 1015.7 |
| 20260502101553 | 3 | 11 | 1.6 | 8.0 | 0.00 | 0.00 | 0.00 | 57 | 1015.5 |
| 20260502091501 | 6 | 13 | 1.6 | 6.4 | 0.00 | 0.00 | 0.00 | 46 | 1015.3 |
| 20260502070027 | 6 | 360 | 0.0 | 4.8 | 0.00 | 0.00 | 0.00 | 50 | 1016.2 |
| 20260502064527 | 7 | 346 | 3.2 | 4.8 | 0.00 | 0.00 | 0.00 | 45 | 1016.1 |
| 20260502063023 | 9 | 345 | 6.4 | 8.0 | 0.00 | 0.00 | 0.00 | 41 | 1016.1 |
| 20260502061509 | 10 | 249 | 9.7 | 12.9 | 0.00 | 0.00 | 0.00 | 40 | 1016.0 |
| 20260502060051 | 10 | 247 | 8.0 | 12.9 | 0.00 | 0.00 | 0.00 | 40 | 1016.0 |
| 20260502054550 | 9 | 240 | 8.0 | 11.3 | 0.00 | 0.00 | 0.00 | 41 | 1016.0 |
| 20260502053035 | 10 | 236 | 8.0 | 11.3 | 0.00 | 0.00 | 0.00 | 41 | 1016.0 |
| 20260502051542 | 8 | 212 | 8.0 | 11.3 | 0.00 | 0.00 | 0.00 | 44 | 1016.0 |
| 20260502050018 | 9 | 227 | 6.4 | 8.0 | 0.00 | 0.00 | 0.00 | 43 | 1016.0 |
| 20260502044515 | 10 | 248 | 8.0 | 12.9 | 0.00 | 0.00 | 0.00 | 41 | 1016.0 |
| 20260502043111 | 9 | 202 | 8.0 | 11.3 | 0.00 | 0.00 | 0.00 | 44 | 1016.1 |
| 20260502041633 | 10 | 207 | 6.4 | 11.3 | 0.00 | 0.00 | 0.00 | 44 | 1016.2 |
| 20260502040043 | 11 | 215 | 6.4 | 14.5 | 0.00 | 0.00 | 0.00 | 39 | 1016.2 |
| 20260502034539 | 11 | 227 | 8.0 | 11.3 | 0.00 | 0.00 | 0.00 | 38 | 1016.1 |
| 20260502033025 | 12 | 222 | 8.0 | 12.9 | 0.00 | 0.00 | 0.00 | 36 | 1016.1 |
| 20260502031520 | 12 | 203 | 3.2 | 6.4 | 0.00 | 0.00 | 0.00 | 33 | 1015.9 |
| 20260502030002 | 13 | 294 | 4.8 | 8.0 | 0.00 | 0.00 | 0.00 | 31 | 1015.7 |
| 20260502024501 | 13 | 295 | 8.0 | 11.3 | 0.00 | 0.00 | 0.00 | 30 | 1015.6 |
| 20260502023102 | 13 | 288 | 6.4 | 9.7 | 0.00 | 0.00 | 0.00 | 31 | 1015.4 |
| 20260502021543 | 15 | 287 | 8.0 | 11.3 | 0.00 | 0.00 | 0.00 | 29 | 1015.3 |
| 20260502020048 | 18 | 81 | 3.2 | 6.4 | 0.00 | 0.00 | 0.00 | 17 | 1015.3 |
| 20260502014528 | 19 | 74 | 4.8 | 8.0 | 0.00 | 0.00 | 0.00 | 17 | 1015.2 |
| 20260502013024 | 20 | 57 | 4.8 | 11.3 | 0.00 | 0.00 | 0.00 | 17 | 1015.1 |
| 20260502011505 | 20 | 91 | 3.2 | 8.0 | 0.00 | 0.00 | 0.00 | 17 | 1015.2 |
| 20260502010004 | 20 | 191 | 4.8 | 11.3 | 0.00 | 0.00 | 0.00 | 16 | 1015.3 |
| 20260502004555 | 20 | 179 | 0.0 | 9.7 | 0.00 | 0.00 | 0.00 | 17 | 1015.4 |
| 20260502003050 | 20 | 42 | 6.4 | 16.1 | 0.00 | 0.00 | 0.00 | 17 | 1015.5 |
| 20260502001558 | 20 | 117 | 6.4 | 14.5 | 0.00 | 0.00 | 0.00 | 17 | 1015.5 |
| 20260502000049 | 20 | 109 | 1.6 | 11.3 | 0.00 | 0.00 | 0.00 | 17 | 1015.6 |
| 20260501234547 | 20 | 83 | 11.3 | 17.7 | 0.00 | 0.00 | 0.00 | 16 | 1015.7 |
| 20260501233057 | 20 | 90 | 4.8 | 12.9 | 0.00 | 0.00 | 0.00 | 18 | 1015.8 |
| 20260501231557 | 20 | 96 | 16.1 | 20.9 | 0.00 | 0.00 | 0.00 | 18 | 1015.8 |
| 20260501230044 | 20 | 81 | 9.7 | 20.9 | 0.00 | 0.00 | 0.00 | 18 | 1015.9 |
| 20260501224525 | 20 | 92 | 1.6 | 12.9 | 0.00 | 0.00 | 0.00 | 19 | 1016.0 |
| 20260501223037 | 20 | 85 | 3.2 | 17.7 | 0.00 | 0.00 | 0.00 | 19 | 1016.1 |
| 20260501221613 | 19 | 83 | 9.7 | 20.9 | 0.00 | 0.00 | 0.00 | 20 | 1016.2 |
| 20260501220005 | 19 | 114 | 12.9 | 20.9 | 0.00 | 0.00 | 0.00 | 19 | 1016.4 |
| 20260501214547 | 19 | 73 | 11.3 | 20.9 | 0.00 | 0.00 | 0.00 | 19 | 1016.5 |
| 20260501213043 | 20 | 75 | 4.8 | 11.3 | 0.00 | 0.00 | 0.00 | 19 | 1016.8 |
| 20260501211526 | 18 | 104 | 4.8 | 17.7 | 0.00 | 0.00 | 0.00 | 20 | 1017.0 |
| 20260501210021 | 18 | 118 | 3.2 | 24.1 | 0.00 | 0.00 | 0.00 | 21 | 1017.2 |
| 20260501204501 | 18 | 76 | 11.3 | 22.5 | 0.00 | 0.00 | 0.00 | 21 | 1017.4 |
| 20260501203001 | 18 | 117 | 12.9 | 19.3 | 0.00 | 0.00 | 0.00 | 20 | 1017.6 |
| 20260501201541 | 18 | 159 | 0.0 | 17.7 | 0.00 | 0.00 | 0.00 | 22 | 1017.8 |
| 20260501200039 | 18 | 139 | 4.8 | 16.1 | 0.00 | 0.00 | 0.00 | 20 | 1017.8 |
| 20260501194520 | 17 | 177 | 9.7 | 22.5 | 0.00 | 0.00 | 0.00 | 21 | 1018.0 |
| 20260501193021 | 17 | 53 | 11.3 | 17.7 | 0.00 | 0.00 | 0.00 | 21 | 1018.0 |
| 20260501191602 | 17 | 94 | 4.8 | 14.5 | 0.00 | 0.00 | 0.00 | 22 | 1018.1 |
| 20260501190058 | 17 | 32 | 3.2 | 22.5 | 0.00 | 0.00 | 0.00 | 22 | 1018.3 |
| 20260501184537 | 17 | 173 | 3.2 | 14.5 | 0.00 | 0.00 | 0.00 | 22 | 1018.6 |
| 20260501183036 | 16 | 92 | 6.4 | 20.9 | 0.00 | 0.00 | 0.00 | 22 | 1018.7 |
| 20260501181516 | 16 | 110 | 11.3 | 22.5 | 0.00 | 0.00 | 0.00 | 23 | 1018.9 |
| 20260501180015 | 16 | 338 | 4.8 | 16.1 | 0.00 | 0.00 | 0.00 | 23 | 1018.9 |